This demonstration page uses our WeatherBlox Daily Observations layout. Learn more.

Left ArrowRight Arrow

Hourly Observations for June 10, 2021

Temp ( °F °C ) Dew Point ( °F °C ) Humidity (%) Winds ( mph kmh ) Pressure ( in mb ) Visibility ( mi km ) Precip ( " mm )
12:16 am 00:16 Cloudy with Nearby Thunderstorms 60 15.6 55 12.8 84 84 NE 6 9 29.85 1011 9 14 0.01 0.25
12:31 am 00:31 Cloudy with Light Rain 59 15 56 13.3 90 90 NNW 8 13 29.85 1011 7 11 0.04 1.02
12:53 am 00:53 Cloudy 58 14.4 56 13.3 93 93 NNW 7 11 29.85 1011 10 16 0.04 1.02
1:03 am 01:03 Cloudy 59 15 56 13.3 90 90 NW 7 11 29.81 1009 10 16 N/A
1:53 am 01:53 Cloudy 58 14.4 55 12.8 90 90 WNW 6 9 29.80 1009 10 16 N/A
2:53 am 02:53 Cloudy 58 14.4 56 13.3 93 93 SSW 5 7 29.82 1010 10 16 N/A
3:53 am 03:53 Cloudy 58 14.4 56 13.3 93 93 N N/A 29.76 1008 10 16 N/A
4:53 am 04:53 Cloudy 58 14.4 56 13.3 93 93 SSW 3 6 29.75 1007 10 16 N/A
5:38 am 05:38 Cloudy 57 13.9 56 13.3 96 96 W 5 7 29.73 1007 10 16 N/A
5:53 am 05:53 Cloudy 57 13.9 56 13.3 96 96 N N/A 29.74 1007 10 16 N/A
6:53 am 06:53 Cloudy 58 14.4 57 13.9 97 97 S 3 6 29.73 1007 10 16 N/A
7:53 am 07:53 Cloudy 58 14.4 56 13.3 93 93 N N/A 29.71 1006 10 16 N/A
8:53 am 08:53 Cloudy 58 14.4 57 13.9 97 97 WSW 7 11 29.70 1006 10 16 N/A
9:19 am 09:19 Cloudy with Mist and Fog 58 14.4 57 13.9 97 97 WSW 7 11 29.68 1005 6 10 N/A
9:39 am 09:39 Cloudy with Mist and Fog 58 14.4 58 14.4 100 100 SW 6 9 29.67 1005 3 5 N/A
9:53 am 09:53 Cloudy with Mist and Fog 59 15 58 14.4 96 96 WSW 7 11 29.69 1005 3 5 N/A
10:20 am 10:20 Cloudy with Mist and Fog 59 15 58 14.4 96 96 SW 9 15 29.66 1004 3 4 N/A
10:43 am 10:43 Cloudy with Mist and Fog 59 15 59 15 100 100 W 9 15 29.66 1004 2 3 N/A
10:53 am 10:53 Cloudy with Mist and Fog 59 15 58 14.4 96 96 W 12 19 29.69 1005 2 3 N/A
11:11 am 11:11 Cloudy with Mist and Fog 59 15 58 14.4 96 96 W 13 20 29.66 1004 3 5 N/A
11:53 am 11:53 Cloudy 60 15.6 57 13.9 90 90 WNW 14 22 29.69 1005 9 14 N/A
12:03 pm 12:03 Cloudy 60 15.6 57 13.9 90 90 WNW 15 24 29.65 1004 10 16 N/A
12:53 pm 12:53 Cloudy 60 15.6 56 13.3 86 86 WNW 13 20 29.69 1005 10 16 N/A
1:11 pm 13:11 Cloudy 61 16.1 56 13.3 84 84 WNW 17 28 29.64 1004 10 16 N/A
1:45 pm 13:45 Cloudy 63 17.2 56 13.3 78 78 NW 15 24 29.65 1004 10 16 N/A
1:53 pm 13:53 Cloudy 63 17.2 55 12.8 76 76 WNW 17 28 29.69 1005 10 16 N/A
2:53 pm 14:53 Cloudy 63 17.2 54 12.2 73 73 WNW 14 22 29.70 1006 10 16 N/A
3:20 pm 15:20 Cloudy 66 18.9 55 12.8 68 68 NW 14 22 29.63 1004 10 16 N/A
3:43 pm 15:43 Cloudy 67 19.4 55 12.8 66 66 NNW 12 19 29.63 1003 10 16 N/A
3:53 pm 15:53 Mostly Cloudy 66 18.9 54 12.2 65 65 NNW 18 30 29.68 1005 10 16 N/A
4:13 pm 16:13 Mostly Cloudy 65 18.3 53 11.7 66 66 NW 17 28 29.65 1004 10 16 N/A
4:53 pm 16:53 Sunny 69 20.6 53 11.7 57 57 NNW 13 20 29.70 1006 10 16 N/A
5:53 pm 17:53 Partly Cloudy 65 18.3 52 11.1 63 63 N 13 20 29.74 1007 10 16 N/A
6:53 pm 18:53 Mostly Cloudy 62 16.7 51 10.6 67 67 NW 8 13 29.79 1009 10 16 N/A
7:53 pm 19:53 Cloudy 58 14.4 54 12.2 87 87 WNW 10 17 29.79 1009 10 16 0.05 1.27
8:53 pm 20:53 Mostly Cloudy 57 13.9 51 10.6 81 81 WNW 18 30 29.85 1011 10 16 N/A
9:53 pm 21:53 Mostly Cloudy with Light Rain 54 12.2 49 9.4 83 83 WNW 15 24 29.85 1011 10 16 0.01 0.25
10:53 pm 22:53 Cloudy with Light Rain 54 12.2 49 9.4 83 83 W 16 26 29.85 1011 10 16 0.00 0.00
11:53 pm 23:53 Cloudy with Light Rain 54 12.2 48 8.9 80 80 W 13 20 29.86 1011 10 16 0.00 0.00

Powered by AerisWeather